Cortez, CO

3:40 AM MDT on October 24, 2017 (GMT -0600)
Cortez Municipal

Weather History for KCEZ - April, 2013

Change the Weather History Date:

Wednesday, April 3, 2013

  Actual Average Record
Temperature  
Mean Temperature 45 °F 44 °F  
Max Temperature 66 °F 60 °F 73 °F (2002)
Min Temperature 24 °F 27 °F 23 °F (2015)
Degree Days  
Heating Degree Days 20 21  
Month to date heating degree days 55 65  
Since 1 July heating degree days 5653 5595  
Cooling Degree Days 0 0  
Month to date cooling degree days 0 0  
Year to date cooling degree days 0 0  
Moisture  
Dew Point 20 °F    
Average Humidity 48    
Maximum Humidity 81    
Minimum Humidity 14    
Precipitation  
Precipitation 0.00 in 0.04 in 0.60 in (2004)
Month to date precipitation T 0.11  
Year to date precipitation 2.51 3.19  
Sea Level Pressure  
Sea Level Pressure 30.04 in    
Wind  
Wind Speed 8 mph (NNE)    
Max Wind Speed 21 mph    
Max Gust Speed 31 mph    
Visibility 10 miles    
Events      
T = Trace of Precipitation, MM = Missing Value Source: NWS Daily Summary

Daily Weather History Graph

Daily Weather History Graph

Search for Another Location

Airport or City:

Trip Planner

Search our weather history database for the weather conditions in past years. The results will help you decide how hot, cold, wet, or windy it might be!

Date:

Astronomy

Apr. 03, 2013 Rise Set
Actual Time 6:56 AM MDT 7:39 PM MDT
Civil Twilight 6:30 AM MDT 8:05 PM MDT
Nautical Twilight 5:59 AM MDT 8:36 PM MDT
Astronomical Twilight 5:27 AM MDT 9:08 PM MDT
Moon 2:31 AM MDT (4/3) 1:02 PM MDT (4/3)
Length of Visible Light 13h 35m
Length of Day
12h 42m
Last Quarter, 44% of the Moon is Illuminated
Apr 3
Last Quarter
Apr 10
New
Apr 18
First Quarter
Apr 25
Full
May 2
Last Quarter

Hourly Weather History & Observations

Time (MDT) Temp. Windchill Dew Point Humidity Pressure Visibility Wind Dir Wind Speed Gust Speed Precip Events Conditions
12:53 AM 30.0 °F 25.2 °F 21.9 °F 72% 29.97 in 10.0 mi SE 4.6 mph - N/A   Clear
1:53 AM 28.9 °F 22.8 °F 21.0 °F 72% 29.99 in 10.0 mi East 5.8 mph - N/A   Clear
2:53 AM 27.0 °F 23.0 °F 21.0 °F 78% 30.01 in 10.0 mi East 3.5 mph - N/A   Clear
3:53 AM 27.0 °F 21.6 °F 19.9 °F 75% 30.03 in 10.0 mi East 4.6 mph - N/A   Clear
4:53 AM 25.0 °F 17.1 °F 19.0 °F 78% 30.04 in 10.0 mi ENE 6.9 mph - N/A   Clear
5:53 AM 26.1 °F 19.4 °F 19.9 °F 78% 30.06 in 10.0 mi ENE 5.8 mph - N/A   Clear
6:53 AM 24.1 °F 18.2 °F 19.0 °F 81% 30.09 in 10.0 mi ENE 4.6 mph - N/A   Clear
7:53 AM 28.9 °F 22.8 °F 21.9 °F 75% 30.12 in 10.0 mi ENE 5.8 mph - N/A   Clear
8:53 AM 41.0 °F 39.0 °F 28.0 °F 60% 30.10 in 10.0 mi ENE 3.5 mph - N/A   Clear
9:53 AM 48.0 °F - 28.9 °F 48% 30.09 in 10.0 mi Calm Calm - N/A   Clear
10:53 AM 54.0 °F - 27.0 °F 35% 30.06 in 10.0 mi North 11.5 mph 19.6 mph N/A   Partly Cloudy
11:53 AM 57.9 °F - 27.0 °F 31% 30.04 in 10.0 mi NNW 12.7 mph 17.3 mph N/A   Clear
12:53 PM 59.0 °F - 24.1 °F 26% 30.03 in 10.0 mi NW 10.4 mph 18.4 mph N/A   Clear
1:53 PM 63.0 °F - 21.9 °F 21% 30.01 in 10.0 mi North 12.7 mph 21.9 mph N/A   Partly Cloudy
2:53 PM 64.0 °F - 19.0 °F 18% 30.00 in 10.0 mi NW 16.1 mph 25.3 mph N/A   Clear
3:53 PM 66.0 °F - 18.0 °F 16% 29.99 in 10.0 mi North 10.4 mph 26.5 mph N/A   Clear
4:53 PM 64.9 °F - 15.1 °F 15% 30.00 in 10.0 mi NW 10.4 mph 21.9 mph N/A   Clear
5:53 PM 64.0 °F - 15.1 °F 15% 30.01 in 10.0 mi NNW 12.7 mph 23.0 mph N/A   Clear
6:53 PM 62.1 °F - 14.0 °F 15% 30.03 in 10.0 mi NNW 10.4 mph - N/A   Clear
7:53 PM 55.9 °F - 12.0 °F 18% 30.05 in 10.0 mi NNW 8.1 mph - N/A   Clear
8:53 PM 53.1 °F - 17.1 °F 24% 30.06 in 10.0 mi NNW 10.4 mph 16.1 mph N/A   Clear
9:53 PM 50.0 °F - 14.0 °F 24% 30.07 in 10.0 mi Variable 4.6 mph - N/A   Clear
10:53 PM 44.1 °F 40.1 °F 16.0 °F 32% 30.09 in 10.0 mi ENE 6.9 mph - N/A   Clear
11:53 PM 35.1 °F 29.3 °F 15.1 °F 44% 30.11 in 10.0 mi ENE 6.9 mph - N/A   Clear